[[[{"header":{"parameterUnit":"kt","parameterCategory":2,"dx":1,"dy":1,"la1":30.253999710083008,"la2":30.299108505249023,"lo1":-89.0895004272461,"lo2":-89.04439544677734,"nx":28,"ny":28,"refTime":"2022-10-20T21:00:00:Z","depth":0,"parameterNumber":1,"parameterNumberName":"U-component_of_WINDS"},"data":[-6.9421,-6.9524,-6.9558,-6.9692,-6.9745,-6.9842,-6.9888,-6.9951,-7.0011,-7.0132,-7.0208,-7.0254,-7.0327,-7.0427,-7.0511,-7.053,-7.0562,-7.0575,-7.0594,-7.0506,-7.0496,-7.0486,-7.0463,-7.0583,-7.0583,-7.0679,-7.068,-7.068,-6.9359,-6.9413,-6.9493,-6.9593,-6.9663,-6.9672,-6.9754,-6.9811,-6.9898,-6.9971,-7.0047,-7.0157,-7.0248,-7.0318,-7.0411,-7.0461,-7.047,-7.0484,-7.0479,-7.049,-7.0398,-7.0373,-7.0476,-7.0476,-7.0476,-7.0476,-7.0476,-7.0476,-6.9254,-6.9314,-6.9394,-6.9481,-6.9541,-6.9609,-6.9672,-6.9725,-6.9804,-6.9904,-6.993,-7.0029,-7.0109,-7.0237,-7.0288,-7.0367,-7.0357,-7.0382,-7.0388,-7.0393,-7.0394,-7.0249,-7.0385,-7.0385,-7.0385,-7.0385,-7.0385,0,-6.9186,-6.9211,-6.9288,-6.9378,-6.9443,-6.9515,-6.9586,-6.9627,-6.9688,-6.9751,-6.9845,-6.9905,-7.0023,-7.0115,-7.021,-7.0258,-7.027,-7.0276,-7.0294,-7.028,-7.0258,-7.0269,-7.0116,-7.027,-7.027,-7.0269,-7.0268,-7.0268,-6.9081,-6.9147,-6.9245,-6.9296,-6.9342,-6.9424,-6.9479,-6.9527,-6.9584,-6.9679,-6.973,-6.9823,-6.9899,-7.0045,-7.0104,-7.0193,-7.0199,-7.0254,-7.0212,-7.0199,-7.0197,-7.0191,-7.0198,-7.0259,-7.026,-7.0261,-7.0262,0,-6.9018,-6.9071,-6.9183,-6.9274,-6.9299,-6.9365,-6.9443,-6.9505,-6.9549,-6.9641,-6.9665,-6.9733,-6.9824,-6.9875,-6.9989,-7.0013,-7.0126,-7.0132,-7.01,-7.0102,-7.0155,-7.0149,-7.0322,-7.0347,-7.0226,-7.0227,-7.0228,0,-6.8947,-6.9031,-6.9104,-6.9166,-6.9263,-6.9308,-6.9402,-6.9448,-6.9515,-6.9587,-6.9611,-6.9678,-6.9732,-6.9808,-6.9843,-6.9945,-6.9967,-6.999,-6.9997,-6.9986,-6.9982,-7.0012,-7.0005,-7.0014,-7.0013,-7.0013,-7.0012,0,-6.884,-6.8978,-6.9079,-6.9119,-6.9222,-6.9269,-6.9315,-6.9389,-6.9442,-6.9519,-6.9554,-6.9641,-6.9688,-6.9756,-6.9798,-6.9768,-6.9925,-6.9891,-6.9948,-6.9946,-6.9975,-6.9972,-7.0117,-7.0011,-7.001,-7.001,-7.001,0,-6.8788,-6.8864,-6.9004,-6.909,-6.9123,-6.9191,-6.9278,-6.9347,-6.9424,-6.9449,-6.951,-6.9529,-6.9622,-6.9586,-6.9715,-6.9662,-6.9708,-6.9739,-6.9744,-6.9751,-6.9707,-6.9778,-6.9914,-6.9929,-6.9765,-6.9763,-6.9761,0,-6.8651,-6.8805,-6.8842,-6.8974,-6.9051,-6.907,-6.9146,-6.9212,-6.9252,-6.9324,-6.9369,-6.945,-6.9434,-6.9465,-6.9524,-6.9572,-6.9641,-6.9565,-6.9667,-6.967,-6.9643,-6.977,-6.9775,-6.988,-6.9736,-6.9738,-6.974,0,-6.8549,-6.8671,-6.8691,-6.8737,-6.883,-6.8894,-6.8982,-6.9072,-6.9117,-6.9189,-6.9262,-6.9379,-6.9371,-6.9422,-6.9446,-6.9503,-6.9596,-6.9485,-6.9488,-6.9502,-6.9727,-6.9732,-6.975,-6.9599,-6.9602,-6.9605,-6.972,0,-6.8456,-6.8538,-6.8597,-6.8695,-6.8753,-6.8837,-6.8887,-6.8941,-6.8958,-6.8996,-6.9106,-6.9171,-6.9261,-6.9294,-6.9309,-6.9425,-6.9412,-6.9401,-6.9364,-6.9448,-6.9487,-6.9503,-6.9303,-6.9302,-6.9301,-6.9301,0,0,-6.831,-6.8428,-6.8463,-6.8547,-6.8597,-6.8612,-6.8698,-6.8749,-6.8849,-6.8884,-6.8865,-6.9036,-6.9088,-6.9216,-6.9246,-6.9283,-6.9308,-6.9274,-6.9408,-6.942,-6.9431,-6.9472,-6.9488,-6.9299,-6.9299,-6.9299,-6.9299,0,-6.8284,-6.8337,-6.8421,-6.8475,-6.8555,-6.8591,-6.8612,-6.8693,-6.8721,-6.8827,-6.8836,-6.8907,-6.9041,-6.9096,-6.9141,-6.9263,-6.9263,-6.9287,-6.9335,-6.94,-6.9413,-6.9424,-6.9467,-6.9482,-6.9297,-6.9297,-6.9297,0,-6.819,-6.825,-6.8295,-6.8409,-6.8461,-6.8539,-6.8514,-6.8597,-6.8656,-6.8664,-6.8768,-6.881,-6.8886,-6.9,-6.9053,-6.9036,-6.9219,-6.917,-6.9175,-6.9181,-6.9246,-6.9261,-6.9274,-6.9095,-6.9094,-6.9093,0,0,-6.8161,-6.8237,-6.8313,-6.8406,-6.8439,-6.8492,-6.8538,-6.8557,-6.8624,-6.8651,-6.8703,-6.8769,-6.8848,-6.8898,-6.8974,-6.9092,-6.911,-6.9143,-6.9152,-6.916,-6.9169,-6.9236,-6.9252,-6.909,-6.909,-6.909,0,0,-6.8146,-6.8238,-6.8241,-6.8355,-6.842,-6.8499,-6.8555,-6.856,-6.8633,-6.8627,-6.8663,-6.8682,-6.8789,-6.8829,-6.8778,-6.8961,-6.8924,-6.8937,-6.893,-6.8943,-6.8952,-6.8938,-6.8758,0,0,0,0,0,-6.8142,-6.8227,-6.8229,-6.8255,-6.8396,-6.8499,-6.8517,-6.8548,-6.8522,-6.8566,-6.861,-6.8607,-6.8809,-6.8765,-6.879,-6.8845,-6.9046,-6.9054,-6.9061,-6.908,-6.9092,-6.9103,0,0,0,0,0,0,-6.8153,-6.8184,-6.8227,-6.8309,-6.8342,-6.8496,-6.8458,-6.8469,-6.8518,-6.8516,-6.8599,-6.861,-6.8638,-6.8754,-6.8776,-6.8827,-6.875,-6.9049,-6.9056,-6.9062,-6.9084,-6.9094,-6.9103,0,0,0,0,0,-6.8161,-6.8187,-6.8405,-6.8309,-6.8336,-6.8398,-6.8455,-6.8464,-6.8502,-6.857,-6.8581,-6.8521,-6.8639,-6.866,-6.8767,-6.8817,-6.8735,-6.8743,-6.9053,-6.9059,-6.9063,-6.9089,0,0,0,0,0,0,-6.8168,-6.8196,-6.8411,-6.8421,-6.8278,-6.839,-6.8409,-6.846,-6.8554,-6.8565,-6.8493,-6.8491,-6.864,-6.8656,-6.8672,-6.8811,-6.8722,-6.8731,-6.8736,-6.9057,-6.9061,-6.9065,0,0,0,0,0,0,-6.8182,-6.8204,-6.8416,-6.8375,-6.8381,-6.8383,-6.8399,-6.8494,-6.8555,-6.8472,-6.8472,-6.8491,-6.8616,-6.8654,-6.8667,-6.8814,-6.8713,-6.8721,-6.8726,-6.873,-6.9061,-6.9064,0,0,0,0,0,0,-6.8192,-6.821,-6.8373,-6.8377,-6.8381,-6.8492,-6.8467,-6.861,-6.852,-6.8467,-6.8513,-6.851,-6.8614,-6.8627,-6.8663,-6.8805,-6.8812,-6.8713,-6.8719,-6.8723,-6.8725,0,0,0,0,0,0,0,-6.82,-6.8068,-6.8354,-6.8378,-6.8382,-6.851,-6.8513,-6.8515,-6.8519,-6.8517,-6.8514,-6.8511,-6.8667,-6.8676,-6.8685,-6.8798,0,0,-6.8712,-6.8716,0,0,0,0,0,0,0,0,-6.8061,-6.8066,-6.8354,-6.8356,-6.8358,-6.851,-6.8513,-6.8515,-6.8519,-6.8517,-6.8514,-6.8512,-6.867,-6.8677,-6.8684,0,0,0,0,0,0,0,0,0,0,0,0,0,0,0,-6.8354,-6.8356,0,-6.8511,-6.8512,-6.8514,-6.8519,-6.8517,-6.8515,-6.8513,-6.8672,-6.8677,-6.8683,0,0,0,0,0,0,0,0,0,0,0,0,0,0,0,0,0,0,0,0,0,0,0,0,0,0,0,0,0,0,0,0,0,0,0,0,0,0,0,0,0,0,0,0,0,0,0,0,0,0,0,0,0,0,0,0,0,0,0,0,0,0,0,0,0,0,0,0,0]}],[{"header":{"parameterUnit":"kt","parameterCategory":2,"dx":1,"dy":1,"la1":30.253999710083008,"la2":30.299108505249023,"lo1":-89.0895004272461,"lo2":-89.04439544677734,"nx":28,"ny":28,"refTime":"2022-10-20T21:00:00:Z","depth":0,"parameterNumber":2,"parameterNumberName":"V-component_of_WINDS"},"data":[7.0153,7.0141,7.0155,7.0147,7.0158,7.0154,7.0157,7.0161,7.0168,7.0164,7.0163,7.0174,7.0184,7.0185,7.0184,7.0188,7.0187,7.0174,7.0181,7.023,7.0238,7.0245,7.0249,7.0173,7.0173,7.0128,7.0127,7.0127,7.0191,7.0202,7.0201,7.021,7.021,7.0231,7.0239,7.0237,7.0232,7.024,7.024,7.0236,7.0234,7.0249,7.0248,7.0241,7.025,7.024,7.024,7.0242,7.0295,7.03,7.0233,7.0233,7.0233,7.0233,7.0233,7.0233,7.0262,7.0254,7.0268,7.0268,7.0275,7.028,7.0274,7.0289,7.0287,7.029,7.0304,7.0298,7.0307,7.0311,7.0315,7.031,7.0323,7.0315,7.0313,7.0311,7.0307,7.0372,7.031,7.031,7.0311,7.0311,7.0311,0,7.0319,7.0331,7.0332,7.0336,7.0336,7.034,7.0346,7.0342,7.037,7.0367,7.0363,7.0363,7.0362,7.0359,7.036,7.0366,7.0385,7.0388,7.0382,7.0376,7.037,7.0373,7.046,7.0389,7.039,7.039,7.0391,7.0391,7.0393,7.0381,7.0401,7.04,7.0406,7.0402,7.0402,7.0428,7.0426,7.0436,7.0426,7.0423,7.0423,7.0413,7.0426,7.0424,7.0433,7.0405,7.0432,7.0427,7.0433,7.0433,7.0432,7.0398,7.0397,7.0397,7.0396,0,7.0433,7.0455,7.0441,7.0461,7.0466,7.0452,7.0469,7.046,7.0474,7.0464,7.0463,7.0484,7.0478,7.0497,7.0493,7.0502,7.0478,7.0487,7.0476,7.0479,7.0455,7.0457,7.0376,7.0367,7.0446,7.0446,7.0445,0,7.0504,7.0487,7.0521,7.0512,7.0494,7.052,7.0501,7.0511,7.052,7.0512,7.0538,7.053,7.0555,7.0549,7.0562,7.0545,7.0544,7.055,7.0554,7.0548,7.0547,7.0545,7.0549,7.0563,7.0563,7.0563,7.0564,0,7.0565,7.0563,7.0548,7.0551,7.0569,7.0561,7.0568,7.0578,7.0576,7.0578,7.0577,7.0576,7.0575,7.0573,7.0591,7.0609,7.057,7.0599,7.0576,7.0576,7.0565,7.0566,7.0491,7.0564,7.0564,7.0564,7.0565,0,7.0625,7.0629,7.0603,7.062,7.0618,7.0607,7.061,7.0605,7.0612,7.0621,7.0621,7.064,7.0627,7.0654,7.0636,7.0655,7.0652,7.0656,7.0655,7.0654,7.0684,7.0639,7.0566,7.0559,7.0655,7.0655,7.0656,0,7.0689,7.067,7.0692,7.0667,7.066,7.0692,7.068,7.0686,7.0696,7.0691,7.0702,7.0695,7.0719,7.0719,7.0707,7.0717,7.0693,7.0721,7.0711,7.071,7.0709,7.0642,7.0626,7.058,7.0666,7.0665,7.0664,0,7.0741,7.0766,7.0759,7.0764,7.0777,7.077,7.0756,7.0756,7.0752,7.0754,7.0743,7.0732,7.075,7.0749,7.0763,7.075,7.071,7.0771,7.0771,7.0759,7.0672,7.0658,7.065,7.0723,7.0721,7.072,7.0672,0,7.0829,7.0822,7.0806,7.0813,7.0812,7.0796,7.0817,7.0813,7.0828,7.084,7.0822,7.0829,7.0825,7.0821,7.0834,7.0799,7.0807,7.0826,7.0852,7.0808,7.0793,7.0786,7.0874,7.0875,7.0876,7.0877,0,0,7.0885,7.0874,7.0899,7.0887,7.0887,7.092,7.0901,7.0904,7.0908,7.0907,7.0923,7.0908,7.0912,7.0888,7.0876,7.0874,7.0869,7.0883,7.0829,7.0824,7.0819,7.0802,7.0795,7.0878,7.0878,7.0878,7.0879,0,7.0922,7.0929,7.0912,7.0917,7.0925,7.0939,7.0934,7.0947,7.0953,7.0936,7.0961,7.0952,7.0938,7.094,7.0939,7.0887,7.0905,7.0884,7.0851,7.0836,7.083,7.0824,7.0806,7.0799,7.088,7.088,7.088,0,7.0977,7.0988,7.0982,7.0984,7.0989,7.098,7.1015,7.1003,7.0997,7.1028,7.101,7.1016,7.1019,7.0994,7.0982,7.0996,7.0936,7.0957,7.0953,7.0952,7.0938,7.093,7.0924,7.1013,7.1014,7.1014,0,0,7.1005,7.0998,7.1017,7.0993,7.0995,7.1014,7.1011,7.1026,7.103,7.1031,7.1039,7.104,7.1033,7.1027,7.102,7.0989,7.0991,7.0973,7.0967,7.0962,7.0957,7.0942,7.0935,7.1016,7.1016,7.1016,0,0,7.1018,7.104,7.1055,7.1031,7.1035,7.105,7.1034,7.1052,7.1049,7.1053,7.1075,7.1076,7.1052,7.1055,7.1074,7.103,7.1056,7.1052,7.1028,7.102,7.1014,7.1013,7.1108,0,0,0,0,0,7.1066,7.1038,7.1052,7.1051,7.1051,7.1043,7.1043,7.1062,7.1081,7.1068,7.1078,7.1097,7.107,7.1087,7.1084,7.1063,7.1035,7.1032,7.1028,7.099,7.0982,7.0975,0,0,0,0,0,0,7.1066,7.1065,7.1053,7.1066,7.1066,7.1044,7.1081,7.1085,7.1083,7.1087,7.1094,7.1097,7.1111,7.109,7.1087,7.1066,7.1109,7.1034,7.1031,7.1028,7.0988,7.0981,7.0975,0,0,0,0,0,7.1066,7.1065,7.1062,7.1067,7.1067,7.1086,7.1082,7.1086,7.1084,7.1098,7.1102,7.1099,7.111,7.1109,7.1088,7.1067,7.1111,7.1109,7.1032,7.1029,7.1027,7.0984,0,0,0,0,0,0,7.1066,7.1068,7.1062,7.1063,7.1079,7.1087,7.109,7.1086,7.1096,7.1099,7.1104,7.1108,7.1109,7.1108,7.1107,7.1067,7.1112,7.1111,7.111,7.103,7.1028,7.1027,0,0,0,0,0,0,7.1069,7.1068,7.1063,7.1077,7.108,7.1089,7.1091,7.1075,7.1096,7.1101,7.1105,7.1106,7.1109,7.1108,7.1107,7.1081,7.1113,7.1112,7.1112,7.1111,7.1029,7.1027,0,0,0,0,0,0,7.1069,7.1069,7.1077,7.1079,7.1082,7.1091,7.1075,7.1074,7.1111,7.11,7.1115,7.1116,7.1108,7.1108,7.1107,7.1081,7.1081,7.1113,7.1113,7.1112,7.1112,0,0,0,0,0,0,0,7.1069,7.1066,7.1058,7.1081,7.1083,7.107,7.107,7.107,7.1111,7.1113,7.1114,7.1116,7.1119,7.1118,7.1117,7.1081,0,0,7.1114,7.1113,0,0,0,0,0,0,0,0,7.1067,7.1067,7.1058,7.1059,7.1059,7.107,7.107,7.107,7.1112,7.1113,7.1114,7.1115,7.1119,7.1118,7.1117,0,0,0,0,0,0,0,0,0,0,0,0,0,0,0,7.1058,7.1059,0,7.107,7.107,7.107,7.1112,7.1113,7.1114,7.1115,7.1119,7.1118,7.1117,0,0,0,0,0,0,0,0,0,0,0,0,0,0,0,0,0,0,0,0,0,0,0,0,0,0,0,0,0,0,0,0,0,0,0,0,0,0,0,0,0,0,0,0,0,0,0,0,0,0,0,0,0,0,0,0,0,0,0,0,0,0,0,0,0,0,0,0,0]}]]]